Regional Weather Roundup
Issued by NWS

Home | Current Version | Previous Version | Text Only | Print | Product List | Glossary Off
Versions: 1 2 3 4 5 6 7 8 9 10 11 12 13 14 15 16 17 18 19 20 21 22 23 24 25 26 27

000
ASUS45 KBOU 162110
RWRCO

WEATHER ROUNDUP FOR COLORADO
NATIONAL WEATHER SERVICE DENVER/BOULDER CO
200 PM MST SAT DEC 16 2017

NOTE: "FAIR" INDICATES FEW OR NO CLOUDS BELOW 12000 FEET WITH NO
SIGNIFICANT WEATHER AND/OR OBSTRUCTIONS TO VISIBILITY.

COZ001>005-013-030-031-162200-
...NORTHWEST COLORADO...

CITY           SKY/WX    TMP DP  RH WIND       PRES   REMARKS
CRAIG          FAIR      33  13  43 CALM      29.77F
HAYDEN         FAIR      32  17  54 S5        29.77F WCI  27
MEEKER         FAIR      44   7  21 CALM      29.74F
RABBIT EARS PA CLOUDY    28  -6  22 W10       29.78F WCI  19
STEAMBOAT SPGS PTSUNNY   30  14  50 CALM      29.75F
WALDEN         PTSUNNY   30  10  43 SE7       29.75F WCI  23
$$

COZ006>008-011-162200-
...WEST CENTRAL VALLEYS...

CITY           SKY/WX    TMP DP  RH WIND       PRES   REMARKS
GRAND JUNCTION FAIR      39  10  30 NW5       29.76F
MONTROSE       FAIR      42   8  24 NW8       29.76F
EAGLE          FAIR      26  11  52 CALM      29.81F
RIFLE          FAIR      36   9  32 CALM      29.77F
DELTA          FAIR      41   6  23 CALM      29.75F
NUCLA          FAIR      43  -4  14 NW3       29.80F
$$

COZ017>023-064>068-162200-
...SOUTHWEST COLORADO...

CITY           SKY/WX    TMP DP  RH WIND       PRES   REMARKS
DURANGO        FAIR      46   6  19 SW5       29.75F
CORTEZ         FAIR      44   9  23 NW5       29.77F
PAGOSA SPRINGS FAIR      46   5  18 SW3       29.76F
TELLURIDE      FAIR      42  -8  12 CALM      29.80F
WOLF CREEK PAS FAIR      30   3  31 SW12      29.90F WCI  21
$$

COZ009-010-012-014-032>034-037-058>063-162200-
...CENTRAL COLORADO...

CITY           SKY/WX    TMP DP  RH WIND       PRES   REMARKS
ASPEN          FAIR      33  14  45 N5        29.76R WCI  29
BUENA VISTA    FAIR      44   7  22 CALM      29.74F
COPPER MTN     NOT AVBL
BERTHOUD PASS  FAIR      23  12  63 S17G26    29.86F WCI   9
COTTONWOOD PAS FAIR      45   3  18 SE5       29.80F
GUNNISON       FAIR      26   7  44 W5        29.80F WCI  20
KREMMLING      FAIR      27  14  59 CALM      29.79F
LEADVILLE      FAIR      34   1  24 CALM      29.77F
MONARCH PASS   FAIR      30   3  31 E18       29.94F WCI  18
SALIDA         FAIR      47   5  17 CALM      29.80F
SUNLIGHT       CLOUDY    30  -4  22 SW8G21    29.84S WCI  23
WILKERSON PASS FAIR      34   3  27 SW5       29.86F WCI  30
$$

COZ069>075-162200-
...SAN LUIS VALLEY/SANGRE DE CRISTO MOUNTAINS...

CITY           SKY/WX    TMP DP  RH WIND       PRES   REMARKS
ALAMOSA        FAIR      40  12  32 VRB3      29.74F
DEL NORTE      FAIR      39  10  30 CALM      29.75F
LA VETA PASS   FAIR      36  10  35 N23G35      N/A
SAGUACHE       FAIR      41  12  30 SE8       29.75F
$$

COZ035-036-038>040-162200-
...NORTHERN COLORADO FRONT RANGE...

CITY           SKY/WX    TMP DP  RH WIND       PRES   REMARKS
DENVER INTL AP PTSUNNY   50  11  20 E9G17     29.77F
DMNS CITY PARK NOT AVBL
AURORA         PTSUNNY   47  10  22 NE5       29.78F
FRONT RANGE AP PTSUNNY   50  16  25 E13G18    29.79F
ERIE MUNI ARPT FAIR      48   9  20 N7        29.84S
BOULDER MUN AP FAIR      46  10  23 E5        29.79S
CENTENNIAL     PTSUNNY   45  13  27 NE5       29.78F
BROOMFIELD     PTSUNNY   48  10  21 NE6       29.79F
FORT COLLINS   FAIR      48  16  27 NE5       29.80F
LONGMONT       FAIR      50  14  24 NE3       29.81S
$$

COZ041-046-047-076>085-087-088-162200-
...PIKES PEAK/PALMER DIVIDE AND SOUTHERN FOOTHILLS...

CITY           SKY/WX    TMP DP  RH WIND       PRES   REMARKS
COLO. SPRINGS  PTSUNNY   51   5  15 N15       29.76R
A. F. ACADEMY  FAIR      47   3  16 N14       29.76F
SCHRIEVER AFB  FAIR      48   3  15 NE21      29.75S
CHEYENNE MTN   FAIR      44   3  18 N12G22    29.71R
ELLICOTT         N/A    N/A N/A N/A NE20      29.74R
FALCON         FAIR      46   3  17 N15G21    29.78R
FORT CARSON    FAIR      54   4  13 N16G24    29.73R
LIMON          FAIR      50  12  21 NE17      29.76S
MONUMENT HILL  FAIR      41  10  28 NE10      29.80F
CANON CITY     FAIR      59   9  13 SE15G25   29.71R
WALSENBURG     FAIR      55   7  14 N22G30    29.72R
TRINIDAD       FAIR      57  12  17 N17       29.69R
$$

COZ042>045-048>051-090-091-162200-
...NORTHEAST COLORADO...

CITY           SKY/WX    TMP DP  RH WIND       PRES   REMARKS
GREELEY ARPT   FAIR      49  16  26 E12       29.79
AKRON          FAIR      46  20  35 NE17      29.79S
BURLINGTON     FAIR      52  18  26 NE20G28   29.74R
WRAY           FAIR      52  23  32 E21G28    29.79S
YUMA           FAIR      46  21  36 NE16      29.78S
STERLING       FAIR      46  27  46 NE12      29.80S
HOLYOKE        FAIR      48  28  46 NE21      29.81S
FORT MORGAN    FAIR      48  18  30 NE15G21   29.80F
$$

COZ086-089-092>099-162200-
...SOUTHEAST COLORADO...

CITY           SKY/WX    TMP DP  RH WIND       PRES   REMARKS
PUEBLO         FAIR      60   4  10 E21       29.70S
LA JUNTA       FAIR      60  13  15 E17G23    29.66S
LAMAR          FAIR      62  12  14 E15       29.65R
SPRINGFIELD      N/A     59  14  17 S16       29.64S
$$




USA.gov is the U.S. government's official web portal to all federal, state and local government web resources and services.